This is the latest recevied weather packets stored in our database for station/object SP3VBV-2. If no packets are shown the sender has not sent any weather packets the latest 10 day(s).
| Time | Temp. | Humidity | Pressure | Rain* | Wind** | Luminosity | Snow |
|---|---|---|---|---|---|---|---|
| 1777720917 | 20.56° C | 37% | 1022.9 hPa | - | - | - | - |
| 1777720309 | 20.56° C | 38% | 1022.9 hPa | - | - | - | - |
| 1777719709 | 20° C | 36% | 1023.2 hPa | - | - | - | - |
| 1777719114 | 19.44° C | 37% | 1023.3 hPa | - | - | - | - |
| 1777718509 | 20° C | 37% | 1023.4 hPa | - | - | - | - |
| 1777717909 | 20° C | 40% | 1023.4 hPa | - | - | - | - |
| 1777716718 | 20° C | 38% | 1023.5 hPa | - | - | - | - |
| 1777715508 | 19.44° C | 40% | 1023.9 hPa | - | - | - | - |
| 1777714908 | 18.89° C | 39% | 1024 hPa | - | - | - | - |
| 1777714308 | 18.89° C | 42% | 1024.1 hPa | - | - | - | - |
| 1777713708 | 18.89° C | 42% | 1024.1 hPa | - | - | - | - |
| 1777713108 | 18.33° C | 43% | 1024.2 hPa | - | - | - | - |
| 1777712508 | 18.33° C | 42% | 1024.3 hPa | - | - | - | - |
| 1777711908 | 17.78° C | 44% | 1024.4 hPa | - | - | - | - |
| 1777711308 | 17.78° C | 44% | 1024.4 hPa | - | - | - | - |
| 1777710709 | 17.78° C | 44% | 1024.5 hPa | - | - | - | - |
| 1777710108 | 17.22° C | 43% | 1024.6 hPa | - | - | - | - |
| 1777709508 | 17.22° C | 50% | 1024.5 hPa | - | - | - | - |
| 1777708908 | 16.67° C | 52% | 1024.5 hPa | - | - | - | - |
| 1777708308 | 16.11° C | 59% | 1024.5 hPa | - | - | - | - |
| 1777707708 | 16.11° C | 63% | 1024.5 hPa | - | - | - | - |
| 1777707108 | 15.56° C | 67% | 1024.5 hPa | - | - | - | - |
| 1777706508 | 15° C | 71% | 1024.4 hPa | - | - | - | - |
| 1777705909 | 14.44° C | 76% | 1024.5 hPa | - | - | - | - |
| 1777704730 | 13.89° C | 79% | 1024.4 hPa | - | - | - | - |
* Rain since midnight (hover to see other rain measurements)
** Current wind speed in m/s (hover to see current wind gust speed)